Погода в Эпимахове

Россия / Псковская область     56°18′10″N   28°33′08″E
темп.,
°C
ветер,
м/с
пор.,
м/с
влажн.,
%
обл.,
%
осадки,
мм/ч
давл.,
гПа
погр.,
м
2 марта, вт
вт200:00+3зсз51490100 0.0 1020734
03:00+2зсз51391100 0.0 1020521
06:00+1зсз4108999 0.0 1018431
09:00+1з5158799 0.0 1017571
12:00+4сз71277100 0.0 10171259
15:00+5сз6116564 0.1 10191586
18:00+2сз412750 0.0 1020888
21:000сз413830 0.0 1023690
3 марта, ср
ср300:00−1сз412870 0.0 1024519
03:00−2зсз39930 0.0 1025326
06:00−2зсз3109223 0.0 1024398
09:00−1зсз4118239 0.0 1024625
12:00+3зсз59680 0.0 1022911
15:00+5зсз59671 0.0 1020989
18:00+3зюз4117593 0.0 1017540
21:00+1зюз4147774 0.0 1015600
4 марта, чт
чт400:00+1зюз4128034 0.0 1011621
03:00+1з498967 0.0 1009654
06:00+1зюз3891100 0.0 1005507
09:00+1з4890100 0.0 1004680
12:00+1зсз4895100 0.3 1003525
15:00+1ссз4793100 0.6 1004557
18:00−1ссз386271 0.3 1005519
21:00−3сз127736 0.3 100724
5 марта, пт
пт500:00−3с378378 0.1 1008637
03:00−5ссз368655 0.1 1010481
06:00−5сз258411 0.0 1010308
09:00−4з12755 0.0 1010193
12:00−3юз237692 0.1 1011512
15:00−1зсз457195 1.0 1012868
18:00−4ссз5861100 1.6 10131289
21:00−6ссз277190 1.6 1015440
6 марта, сб
сб600:00−7сз257618 0.0 1016207
03:00−7сз278244 0.0 1018312
06:00−8ссз496969 0.0 1019767
09:00−8ссз496735 0.0 1020692
12:00−5сз465820 0.0 10201202
15:00−2з475059 0.0 10191271
18:00−3зюз4105159 0.0 10171421
21:00−3зюз7158379 0.1 10131393